Back to catalog

SL-8 DEB

AliveLEO
NORAD 10525·DEBRIS·🇷🇺 Russia

Launched Dec 16, 1977 from Plesetsk Cosmodrome

Loading…

Next Passes (next 24 hours)

TLE

FreshSource: Space-Track

Epoch: Sep 14, 2026, 04:08 UTC

1 10525U 77119D   26257.17229499  .00002595  00000-0  31585-3 0  9999
2 10525  74.0124 274.1998 0009138 279.1223  80.8921 14.83973998577299

Track SL-8 DEB in real time with AllMySat

Download on the App Store